Regional Weather Roundup
Issued by NWS

Home | Current Version | Previous Version | Graphics & Text | Print | Product List | Glossary On
Versions: 1 2 3 4 5 6 7 8 9 10 11 12 13 14 15 16 17 18 19 20 21 22 23 24 25 26 27 28 29 30 31 32 33 34 35 36 37 38 39 40 41 42 43 44 45 46 47 48 49 50
000
ASUS43 KFSD 192102
RWRSD

WEATHER ROUNDUP FOR SOUTH DAKOTA
NATIONAL WEATHER SERVICE SIOUX FALLS SD
300 PM CST SUN FEB 19 2017

NOTE: "FAIR" INDICATES FEW OR NO CLOUDS BELOW 12,000 FEET WITH NO
SIGNIFICANT WEATHER AND/OR OBSTRUCTIONS TO VISIBILITY.


SDZ001>005-009-010-012>017-192200-
NORTHWEST AND NORTH CENTRAL SOUTH DAKOTA

CITY           SKY/WX    TMP DP  RH WIND       PRES   REMARKS
BUFFALO          N/A     67  32  27 SW22G30   29.38S
FAITH            N/A     60  40  47 SE13      29.46S
MOBRIDGE       CLOUDY    47  37  68 SE12      29.48F
$$

SDZ012>016-024>037-041>051-057-063-072>074-192200-
SOUTHWEST AND SOUTH CENTRAL SOUTH DAKOTA

CITY           SKY/WX    TMP DP  RH WIND       PRES   REMARKS
RAPID CTY ARPT CLOUDY    69  32  25 S21       29.48S
PIERRE         CLOUDY    66  37  34 S17       29.49F
CUSTER         CLOUDY    55  28  35 SW13G24   29.58S
ELLSWORTH AFB  CLOUDY    68  32  25 S17       29.47S
PHILIP         CLOUDY    72  32  23 SW17G25   29.49S
PINE RIDGE     CLOUDY    57  35  43 S12       29.55F
SPEARFISH      FAIR      64  30  27 VRB6G13   29.48S
WINNER         FAIR      71  39  31 SW25G32   29.55F
$$

SDZ004>011-016>023-039-040-192200-
NORTHEAST SOUTH DAKOTA

CITY           SKY/WX    TMP DP  RH WIND       PRES   REMARKS
ABERDEEN       CLOUDY    57  45  64 S20G28    29.56F
WATERTOWN      CLOUDY    57  48  72 S21G30    29.63F
BROOKINGS      PTSUNNY   61  49  64 S23       29.66F
SISSETON         N/A     58  50  75 SE22G28   29.62F
$$

SDZ017-020-022-023-036>040-048>070-192200-
SOUTHEAST SOUTH DAKOTA

CITY           SKY/WX    TMP DP  RH WIND       PRES   REMARKS
SIOUX FALLS    PTSUNNY   62  51  67 S18G29    29.70F
HURON          CLOUDY    62  49  62 S14G23    29.58F
CHAMBERLAIN    MOSUNNY   67  46  46 S14G22    29.56F
MITCHELL       CLOUDY    64  51  62 S23G33    29.62S
YANKTON        MOSUNNY   64  46  52 S21G32    29.68S
$$

ABBREVIATIONS USED IN REMARKS
   TC - TEMPERATURE IN CELSIUS
  WCI - WIND CHILL INDEX
   HX - HEAT INDEX
  VSB - VISIBILITY





USA.gov is the U.S. government's official web portal to all federal, state and local government web resources and services.